Green Bay, WI

6:30 AM CDT on May 23, 2017 (GMT -0500)
Austin Straubel International

Weather History for KGRB - March, 2012

Change the Weather History Date:

Saturday, March 24, 2012

  Actual Average Record
Temperature  
Mean Temperature 51 °F 34 °F  
Max Temperature 55 °F 43 °F 72 °F (1910)
Min Temperature 47 °F 25 °F -4 °F (1974)
Degree Days  
Heating Degree Days 14 31  
Month to date heating degree days 428 856  
Since 1 July heating degree days 5272 6696  
Cooling Degree Days 0 0  
Month to date cooling degree days 12 0  
Year to date cooling degree days 12 0  
Moisture  
Dew Point 47 °F    
Average Humidity 92    
Maximum Humidity 100    
Minimum Humidity 83    
Precipitation  
Precipitation 0.04 in 0.06 in 0.80 in (2009)
Month to date precipitation 1.66 1.38  
Year to date precipitation 4.18 3.62  
Snow  
Snow 0.00 in 0.20 in 6.00 in (2016)
Month to date snowfall 8.1 6.9  
Since 1 July snowfall 31.7 47.1  
Snow Depth 0.00 in    
Sea Level Pressure  
Sea Level Pressure 29.91 in    
Wind  
Wind Speed 8 mph (NNE)    
Max Wind Speed 15 mph    
Max Gust Speed 18 mph    
Visibility 8 miles    
Events Rain    
T = Trace of Precipitation, MM = Missing Value Source: NWS Daily Summary

Daily Weather History Graph

Daily Weather History Graph

Search for Another Location

Airport or City:

Trip Planner

Search our weather history database for the weather conditions in past years. The results will help you decide how hot, cold, wet, or windy it might be!

Date:

Astronomy

Mar. 24, 2012 Rise Set
Actual Time 6:47 AM CDT 7:10 PM CDT
Civil Twilight 6:18 AM CDT 7:39 PM CDT
Nautical Twilight 5:43 AM CDT 8:14 PM CDT
Astronomical Twilight 5:08 AM CDT 8:49 PM CDT
Moon 7:19 AM CDT (3/24) 9:37 PM CDT (3/24)
Length of Visible Light 13h 21m
Length of Day
12h 23m
Waxing Crescent, 4% of the Moon is Illuminated
Mar 24
Waxing Crescent
Mar 30
First Quarter
Apr 6
Full
Apr 13
Last Quarter
Apr 21
New

Hourly Weather History & Observations

Time (CDT) Temp. Windchill Dew Point Humidity Pressure Visibility Wind Dir Wind Speed Gust Speed Precip Events Conditions
12:48 AM 48.2 °F - 48.2 °F 100% 29.87 in 2.5 mi NE 12.7 mph - 0.01 in Rain Light Rain
12:53 AM 48.0 °F - 48.0 °F 100% 29.88 in 3.0 mi ENE 12.7 mph - 0.02 in Rain Light Rain
1:09 AM 48.2 °F - 48.2 °F 100% 29.87 in 2.0 mi NE 11.5 mph - 0.00 in Rain Light Rain
1:53 AM 48.0 °F - 46.9 °F 96% 29.88 in 2.0 mi NNE 11.5 mph - 0.02 in Rain Light Rain
2:31 AM 48.2 °F - 48.2 °F 100% 29.87 in 3.0 mi NE 11.5 mph - 0.01 in   Overcast
2:53 AM 48.0 °F - 46.9 °F 96% 29.88 in 3.0 mi NE 12.7 mph - 0.02 in Rain Light Rain
3:53 AM 46.4 °F 41.9 °F 46.4 °F 100% 29.86 in 4.0 mi NE 9.2 mph - N/A   Overcast
4:41 AM 48.2 °F - 48.2 °F 100% 29.86 in 7.0 mi NNE 9.2 mph - N/A   Overcast
4:53 AM 48.0 °F - 48.0 °F 100% 29.88 in 7.0 mi NNE 9.2 mph - N/A   Overcast
5:15 AM 48.2 °F - 48.2 °F 100% 29.87 in 6.0 mi NNE 11.5 mph - N/A   Overcast
5:53 AM 48.0 °F - 48.0 °F 100% 29.89 in 8.0 mi NE 9.2 mph - N/A   Overcast
6:53 AM 46.9 °F - 46.9 °F 100% 29.90 in 9.0 mi NE 8.1 mph - N/A   Overcast
7:53 AM 46.9 °F - 46.9 °F 100% 29.91 in 7.0 mi ENE 5.8 mph - N/A   Overcast
8:53 AM 46.9 °F - 46.9 °F 100% 29.91 in 7.0 mi NNE 9.2 mph - N/A   Overcast
9:53 AM 48.0 °F - 46.9 °F 96% 29.91 in 10.0 mi NNE 8.1 mph - N/A   Overcast
10:53 AM 48.9 °F - 45.0 °F 86% 29.92 in 10.0 mi NE 5.8 mph - N/A   Overcast
11:53 AM 51.1 °F - 46.9 °F 86% 29.92 in 9.0 mi North 9.2 mph - N/A   Overcast
12:27 PM 51.8 °F - 46.4 °F 82% 29.90 in 10.0 mi North 9.2 mph - N/A   Overcast
12:53 PM 52.0 °F - 46.9 °F 83% 29.92 in 9.0 mi NNE 9.2 mph - N/A   Overcast
1:53 PM 54.0 °F - 48.0 °F 80% 29.92 in 10.0 mi North 6.9 mph - N/A   Overcast
2:53 PM 54.0 °F - 48.0 °F 80% 29.92 in 10.0 mi North 6.9 mph - N/A   Overcast
3:48 PM 55.4 °F - 48.2 °F 77% 29.91 in 9.0 mi North 4.6 mph - N/A   Overcast
3:53 PM 54.0 °F - 48.0 °F 80% 29.93 in 9.0 mi North 4.6 mph - N/A   Overcast
4:35 PM 55.4 °F - 48.2 °F 77% 29.91 in 10.0 mi NE 3.5 mph - N/A   Overcast
4:53 PM 55.9 °F - 48.0 °F 75% 29.92 in 10.0 mi ENE 3.5 mph - N/A   Overcast
5:53 PM 54.0 °F - 45.0 °F 72% 29.92 in 10.0 mi NE 5.8 mph - N/A   Overcast
6:53 PM 51.1 °F - 43.0 °F 74% 29.94 in 10.0 mi NE 4.6 mph - N/A   Clear
7:53 PM 50.0 °F - 43.0 °F 77% 29.93 in 10.0 mi Calm Calm - N/A   Clear
8:53 PM 48.9 °F - 44.1 °F 83% 29.95 in 10.0 mi Calm Calm - N/A   Mostly Cloudy
9:53 PM 48.9 °F - 44.1 °F 83% 29.96 in 10.0 mi Calm Calm - N/A   Overcast
10:53 PM 50.0 °F - 43.0 °F 77% 29.97 in 10.0 mi North 3.5 mph - N/A   Overcast
11:53 PM 50.0 °F - 43.0 °F 77% 29.97 in 10.0 mi NE 3.5 mph - N/A   Overcast